Location: Kershaw
(34.5481°N, 80.5823°W)
Time: 15:11:18
(UTC+00:00)

Courier 1B Rocket - Pass Details

Date: 02 October 2022
Orbit: 920 x 1202 km, 28.2° (Epoch: 08 December)

Event Time Altitude Azimuth Distance (km) Brightness Sun altitude
Rises 23:46:13 0° 234° (SW) 3,798 9.0 -9.3°
Reaches altitude 10° 23:49:16 10° 225° (SW) 2,799 8.0 -10.0°
Maximum altitude 23:55:11 33° 164° (SSE) 1,584 6.0 -11.2°
Enters shadow 23:59:42 15° 108° (ESE) 2,332 6.4 -12.1°
Drops below altitude 10° 00:00:48 10° 102° (ESE) 2,654 - -12.3°
Sets 00:03:36 0° 93° (E) 3,576 - -12.9°
